Location: Albany
(35.0170°S, 117.8920°E)
Time: 13:49:03
(UTC+08:00)

X-37B - Visible Passes

Search period start: 25 November 2020 00:00
Search period end: 05 December 2020 00:00
Orbit: 384 x 389 km, 45.0° (Epoch: 12 November)

Date Brightness Start Highest point End Pass type
(mag) Time Alt. Az. Time Alt. Az. Time Alt. Az.
30 Nov 2.4 03:57:28 10° NNW 04:00:07 24° NE 04:02:48 10° E visible
01 Dec 3.2 03:01:24 12° NE 03:01:45 12° NE 03:02:59 10° ENE visible
02 Dec 1.1 03:37:41 22° NNW 03:39:27 50° NE 03:42:36 10° ESE visible
03 Dec 2.5 02:41:39 22° ENE 02:41:39 22° ENE 02:43:40 10° E visible
03 Dec 1.6 04:14:25 10° W 04:17:29 40° SSW 04:20:36 10° SE visible
04 Dec 0.6 03:17:49 39° WNW 03:18:51 77° SSW 03:22:06 10° SE visible
